This is the latest recevied weather packets stored in our database for station/object AD8BV. If no packets are shown the sender has not sent any weather packets the latest 1 day(s).
| Time | Temp. | Humidity | Pressure | Rain* | Wind** | Luminosity | Snow |
|---|---|---|---|---|---|---|---|
| 1777984089 | 13.33° C | 65% | 1005.6 hPa | 0 mm | 0 m/s | 159 W/m² | - |
| 1777983787 | 12.78° C | 66% | 1005.5 hPa | 0 mm | 0.45 m/s, 309° | 124 W/m² | - |
| 1777983483 | 12.78° C | 68% | 1005.7 hPa | 0 mm | 0 m/s | 91 W/m² | - |
| 1777983180 | 12.78° C | 66% | 1005.7 hPa | 0 mm | 0 m/s | 62 W/m² | - |
| 1777982876 | 12.22° C | 68% | 1005.9 hPa | 0 mm | 0 m/s | 97 W/m² | - |
| 1777982572 | 12.22° C | 67% | 1005.9 hPa | 0 mm | 0.45 m/s, 221° | 86 W/m² | - |
| 1777982271 | 12.22° C | 67% | 1005.9 hPa | 0 mm | 0 m/s | 42 W/m² | - |
| 1777981969 | 12.22° C | 67% | 1005.8 hPa | 0 mm | 0 m/s | 42 W/m² | - |
| 1777981666 | 12.22° C | 68% | 1005.9 hPa | 0 mm | 0.89 m/s, 281° | 51 W/m² | - |
| 1777981362 | 11.67° C | 69% | 1005.9 hPa | 0 mm | 0.45 m/s, 262° | 72 W/m² | - |
| 1777981059 | 11.67° C | 68% | 1005.7 hPa | 0 mm | 0 m/s | 38 W/m² | - |
| 1777980755 | 11.67° C | 70% | 1005.7 hPa | 0 mm | 0 m/s | 31 W/m² | - |
| 1777980451 | 11.67° C | 69% | 1005.8 hPa | 0 mm | 0 m/s | 34 W/m² | - |
| 1777980149 | 11.67° C | 73% | 1005.8 hPa | 0 mm | 0 m/s | 28 W/m² | - |
| 1777979849 | 11.67° C | 76% | 1005.7 hPa | 0 mm | 0 m/s | 24 W/m² | - |
| 1777979545 | 11.67° C | 73% | 1005.5 hPa | 0 mm | 0 m/s | 20 W/m² | - |
| 1777979241 | 11.67° C | 72% | 1005.4 hPa | 0 mm | 0 m/s | 16 W/m² | - |
| 1777978939 | 11.67° C | 76% | 1005.3 hPa | 0 mm | 0 m/s | 10 W/m² | - |
| 1777978635 | 11.67° C | 74% | 1005.1 hPa | 0 mm | 0 m/s | 10 W/m² | - |
| 1777978331 | 11.67° C | 75% | 1005 hPa | 0 mm | 0.45 m/s, 279° | 6 W/m² | - |
| 1777978028 | 12.22° C | 77% | 1004.7 hPa | 0 mm | 0 m/s | 5 W/m² | - |
| 1777977725 | 12.22° C | 80% | 1004.6 hPa | 0 mm | 0 m/s | 3 W/m² | - |
| 1777977421 | 12.22° C | 85% | 1005.1 hPa | 0 mm | 0.45 m/s, 291° | 2 W/m² | - |
| 1777977119 | 12.22° C | 86% | 1004.3 hPa | 0 mm | 0 m/s | 0 W/m² | - |
| 1777976817 | 12.22° C | 91% | 1004.8 hPa | 0 mm | 0 m/s | 0 W/m² | - |
* Rain latest hour (hover to see other rain measurements)
** Current wind speed in m/s (hover to see current wind gust speed)